08-10-2022, 00:00:00,    257,    1.1,    7.4,   0.00,   0.00, 1015.2,   99.0, -999.0
08-10-2022, 00:00:10,    253,    0.7,    7.4,   0.00,   0.00, 1015.2,   99.0, -999.0
08-10-2022, 00:00:19,    215,    1.1,    7.4,   0.00,   0.00, 1015.1,   99.0, -999.0
08-10-2022, 00:00:30,    216,    0.5,    7.4,   0.00,   0.00, 1015.1,   99.0, -999.0
08-10-2022, 00:00:40,    221,    0.6,    7.4,   0.00,   0.00, 1015.1,   99.0, -999.0
08-10-2022, 00:00:49,    221,    0.0,    7.3,   0.00,   0.00, 1015.0,   98.7, -999.0
08-10-2022, 00:00:59,    223,    0.1,    7.3,   0.00,   0.00, 1015.0,   98.7, -999.0
08-10-2022, 00:01:10,    226,    0.1,    7.3,   0.00,   0.00, 1015.0,   98.7, -999.0
08-10-2022, 00:01:19,    252,    1.3,    7.4,   0.00,   0.00, 1015.2,   99.0, -999.0
08-10-2022, 00:01:29,    251,    1.5,    7.4,   0.00,   0.00, 1015.2,   99.0, -999.0
08-10-2022, 00:01:39,    256,    1.6,    7.4,   0.00,   0.00, 1015.1,   99.0, -999.0
08-10-2022, 00:01:49,    258,    0.8,    7.4,   0.00,   0.00, 1015.1,   99.0, -999.0
08-10-2022, 00:01:59,    258,    0.3,    7.3,   0.00,   0.00, 1015.1,   98.9, -999.0
08-10-2022, 00:02:09,    258,    0.0,    7.3,   0.00,   0.00, 1015.0,   98.7, -999.0
08-10-2022, 00:02:19,    258,    0.0,    7.2,   0.00,   0.00, 1015.0,   98.6, -999.0
08-10-2022, 00:02:29,    258,    0.0,    7.3,   0.00,   0.00, 1015.0,   98.6, -999.0
08-10-2022, 00:02:39,    262,    0.2,    7.3,   0.00,   0.00, 1015.1,   98.8, -999.0
08-10-2022, 00:02:49,    264,    0.2,    7.3,   0.00,   0.00, 1015.1,   98.8, -999.0
08-10-2022, 00:02:59,    238,    0.8,    7.4,   0.00,   0.00, 1015.1,   99.0, -999.0
08-10-2022, 00:03:09,    252,    0.9,    7.3,   0.00,   0.00, 1015.1,   99.0, -999.0
08-10-2022, 00:03:19,    250,    0.0,    7.3,   0.00,   0.00, 1015.0,   98.7, -999.0
08-10-2022, 00:03:28,    250,    0.0,    7.2,   0.00,   0.00, 1015.0,   98.6, -999.0
08-10-2022, 00:03:39,    250,    0.0,    7.3,   0.00,   0.00, 1015.0,   98.7, -999.0
08-10-2022, 00:03:49,    250,    0.0,    7.2,   0.00,   0.00, 1015.0,   98.6, -999.0
08-10-2022, 00:03:58,    250,    0.0,    7.2,   0.00,   0.00, 1015.0,   98.7, -999.0
08-10-2022, 00:04:08,    250,    0.0,    7.2,   0.00,   0.00, 1015.0,   98.8, -999.0
08-10-2022, 00:04:19,    251,    0.5,    7.3,   0.00,   0.00, 1015.1,   99.0, -999.0
08-10-2022, 00:04:28,    248,    0.8,    7.2,   0.00,   0.00, 1015.1,   99.0, -999.0
08-10-2022, 00:04:38,    248,    0.7,    7.3,   0.00,   0.00, 1015.2,   99.0, -999.0
08-10-2022, 00:04:48,    250,    0.7,    7.3,   0.00,   0.00, 1015.2,   99.0, -999.0
08-10-2022, 00:04:58,    249,    0.5,    7.3,   0.00,   0.00, 1015.2,   99.0, -999.0
08-10-2022, 00:05:08,    248,    0.0,    7.3,   0.00,   0.00, 1015.1,   98.7, -999.0
08-10-2022, 00:05:18,    250,    0.1,    7.1,   0.00,   0.00, 1015.1,   98.8, -999.0
08-10-2022, 00:05:28,    251,    0.2,    7.2,   0.00,   0.00, 1015.1,   98.9, -999.0
08-10-2022, 00:05:38,    252,    0.0,    7.2,   0.00,   0.00, 1015.1,   98.8, -999.0
08-10-2022, 00:05:48,    251,    0.5,    7.3,   0.00,   0.00, 1015.1,   98.9, -999.0
08-10-2022, 00:05:58,    248,    0.8,    7.3,   0.00,   0.00, 1015.2,   99.0, -999.0
08-10-2022, 00:06:08,    251,    0.9,    7.3,   0.00,   0.00, 1015.2,   99.0, -999.0
08-10-2022, 00:06:18,    251,    0.2,    7.2,   0.00,   0.00, 1015.1,   98.8, -999.0
08-10-2022, 00:06:28,    251,    0.7,    7.2,   0.00,   0.00, 1015.2,   99.0, -999.0
08-10-2022, 00:06:37,    258,    1.8,    7.3,   0.00,   0.00, 1015.2,   99.0, -999.0
08-10-2022, 00:06:48,    259,    0.8,    7.1,   0.00,   0.00, 1015.2,   99.0, -999.0
08-10-2022, 00:06:58,    258,    0.2,    7.2,   0.00,   0.00, 1015.1,   98.8, -999.0
08-10-2022, 00:07:07,    258,    0.0,    7.2,   0.00,   0.00, 1015.1,   98.8, -999.0
08-10-2022, 00:07:17,    256,    0.2,    7.2,   0.00,   0.00, 1015.2,   98.9, -999.0
08-10-2022, 00:07:27,    256,    0.0,    7.2,   0.00,   0.00, 1015.1,   98.7, -999.0
08-10-2022, 00:07:37,    244,    0.6,    7.2,   0.00,   0.00, 1015.2,   99.0, -999.0
08-10-2022, 00:07:47,    244,    0.5,    7.2,   0.00,   0.00, 1015.2,   99.0, -999.0
08-10-2022, 00:07:57,    244,    0.3,    7.2,   0.00,   0.00, 1015.1,   99.0, -999.0
08-10-2022, 00:08:07,    244,    0.2,    7.2,   0.00,   0.00, 1015.2,   99.0, -999.0
08-10-2022, 00:08:17,    244,    0.1,    7.2,   0.00,   0.01, 1015.1,   98.9, -999.0
08-10-2022, 00:08:27,    250,    0.0,    7.0,   0.00,   0.00, 1015.0,   98.6, -999.0
08-10-2022, 00:08:37,    249,    0.0,    7.0,   0.00,   0.00, 1015.1,   98.7, -999.0
08-10-2022, 00:08:47,    249,    0.1,    7.1,   0.00,   0.00, 1015.2,   98.8, -999.0
08-10-2022, 00:08:57,    249,    0.0,    7.1,   0.00,   0.00, 1015.1,   98.8, -999.0
08-10-2022, 00:09:07,    249,    0.0,    7.1,   0.00,   0.00, 1015.1,   98.8, -999.0
08-10-2022, 00:09:17,    247,    0.5,    7.1,   0.00,   0.00, 1015.2,   99.0, -999.0
08-10-2022, 00:09:27,    267,    1.1,    7.2,   0.00,   0.00, 1015.2,   99.0, -999.0
08-10-2022, 00:09:37,    270,    0.7,    7.2,   0.00,   0.00, 1015.2,   98.9, -999.0
08-10-2022, 00:09:46,    252,    0.5,    7.1,   0.00,   0.00, 1015.2,   98.9, -999.0
08-10-2022, 00:09:57,    257,    0.2,    7.2,   0.00,   0.00, 1015.1,   98.8, -999.0
08-10-2022, 00:10:07,    257,    0.0,    7.2,   0.00,   0.00, 1015.1,   98.7, -999.0
08-10-2022, 00:10:16,    258,    0.0,    7.1,   0.00,   0.00, 1015.1,   98.6, -999.0
08-10-2022, 00:10:26,    258,    0.0,    7.0,   0.00,   0.00, 1015.1,   98.6, -999.0
08-10-2022, 00:10:36,    258,    0.0,    7.1,   0.00,   0.00, 1015.1,   98.6, -999.0
08-10-2022, 00:10:46,    257,    0.0,    7.0,   0.00,   0.00, 1015.1,   98.6, -999.0
08-10-2022, 00:10:56,    257,    0.0,    7.1,   0.00,   0.00, 1015.1,   98.6, -999.0
08-10-2022, 00:11:06,    257,    0.2,    7.1,   0.00,   0.00, 1015.2,   98.9, -999.0
08-10-2022, 00:11:16,    257,    0.0,    7.1,   0.00,   0.00, 1015.1,   98.7, -999.0
08-10-2022, 00:11:26,    264,    0.7,    7.2,   0.00,   0.00, 1015.2,   99.0, -999.0
08-10-2022, 00:11:36,    267,    0.0,    7.1,   0.00,   0.00, 1015.2,   98.7, -999.0
08-10-2022, 00:11:46,    267,    0.0,    7.0,   0.00,   0.00, 1015.1,   98.7, -999.0
08-10-2022, 00:11:56,    266,    0.0,    7.0,   0.00,   0.00, 1015.1,   98.7, -999.0
08-10-2022, 00:12:06,    265,    0.1,    7.1,   0.00,   0.00, 1015.1,   98.8, -999.0
08-10-2022, 00:12:16,    265,    0.0,    7.1,   0.00,   0.00, 1015.1,   98.6, -999.0
08-10-2022, 00:12:26,    265,    0.0,    7.1,   0.00,   0.00, 1015.1,   98.7, -999.0
08-10-2022, 00:12:36,    265,    0.0,    7.1,   0.00,   0.00, 1015.1,   98.6, -999.0
08-10-2022, 00:12:46,    265,    0.0,    7.1,   0.00,   0.00, 1015.1,   98.6, -999.0
08-10-2022, 00:12:55,    266,    0.0,    7.0,   0.00,   0.00, 1015.1,   98.6, -999.0
08-10-2022, 00:13:06,    265,    0.0,    7.0,   0.00,   0.00, 1015.1,   98.6, -999.0
08-10-2022, 00:13:15,    265,    0.0,    7.1,   0.00,   0.00, 1015.1,   98.7, -999.0
08-10-2022, 00:13:25,    265,    0.0,    7.1,   0.00,   0.00, 1015.1,   98.6, -999.0
08-10-2022, 00:13:35,    265,    0.0,    7.1,   0.00,   0.00, 1015.1,   98.6, -999.0
08-10-2022, 00:13:45,    266,    0.0,    7.0,   0.00,   0.00, 1015.1,   98.6, -999.0
08-10-2022, 00:13:55,    265,    0.0,    7.0,   0.00,   0.00, 1015.1,   98.6, -999.0
08-10-2022, 00:14:05,    265,    0.0,    7.1,   0.00,   0.00, 1015.1,   98.5, -999.0
08-10-2022, 00:14:15,    265,    0.0,    7.0,   0.00,   0.00, 1015.1,   98.6, -999.0
08-10-2022, 00:14:25,    265,    0.0,    7.0,   0.00,   0.00, 1015.2,   98.6, -999.0
08-10-2022, 00:14:35,    265,    0.0,    7.0,   0.00,   0.00, 1015.2,   98.7, -999.0
08-10-2022, 00:14:45,    274,    0.3,    7.1,   0.00,   0.00, 1015.2,   98.7, -999.0
08-10-2022, 00:14:55,    249,    0.5,    7.1,   0.00,   0.00, 1015.2,   98.9, -999.0
08-10-2022, 00:15:05,    248,    0.3,    7.1,   0.00,   0.00, 1015.2,   98.9, -999.0
08-10-2022, 00:15:15,    248,    0.1,    7.1,   0.00,   0.00, 1015.2,   98.8, -999.0
08-10-2022, 00:15:25,    248,    0.0,    7.1,   0.00,   0.00, 1015.2,   98.6, -999.0
08-10-2022, 00:15:35,    248,    0.0,    7.1,   0.00,   0.00, 1015.2,   98.7, -999.0
08-10-2022, 00:15:45,    294,    0.1,    7.1,   0.00,   0.00, 1015.2,   98.8, -999.0
08-10-2022, 00:15:54,    292,    0.2,    7.2,   0.00,   0.00, 1015.3,   99.0, -999.0
08-10-2022, 00:16:04,    292,    0.0,    7.1,   0.00,   0.00, 1015.2,   98.6, -999.0
08-10-2022, 00:16:15,    294,    0.0,    7.1,   0.00,   0.00, 1015.2,   98.8, -999.0
08-10-2022, 00:16:24,    293,    0.0,    7.2,   0.00,   0.00, 1015.3,   98.8, -999.0
08-10-2022, 00:16:34,    293,    0.0,    7.1,   0.00,   0.00, 1015.2,   98.6, -999.0
08-10-2022, 00:16:44,    293,    0.0,    7.1,   0.00,   0.00, 1015.2,   98.6, -999.0
08-10-2022, 00:16:54,    293,    0.0,    6.9,   0.00,   0.00, 1015.2,   98.6, -999.0
08-10-2022, 00:17:04,    293,    0.0,    7.1,   0.00,   0.00, 1015.2,   98.6, -999.0
08-10-2022, 00:17:14,    293,    0.2,    7.2,   0.00,   0.00, 1015.3,   98.9, -999.0
08-10-2022, 00:17:24,    293,    0.1,    7.2,   0.00,   0.00, 1015.3,   98.8, -999.0
08-10-2022, 00:17:34,    293,    0.0,    7.1,   0.00,   0.00, 1015.3,   98.6, -999.0
08-10-2022, 00:17:44,    293,    0.0,    7.1,   0.00,   0.00, 1015.2,   98.6, -999.0
08-10-2022, 00:17:54,    293,    0.0,    7.1,   0.00,   0.00, 1015.3,   98.6, -999.0
08-10-2022, 00:18:04,    266,    0.3,    7.2,   0.00,   0.00, 1015.4,   98.9, -999.0
08-10-2022, 00:18:14,    266,    0.1,    7.2,   0.00,   0.00, 1015.3,   98.7, -999.0
08-10-2022, 00:18:24,    266,    0.0,    7.2,   0.00,   0.00, 1015.3,   98.6, -999.0
08-10-2022, 00:18:33,    266,    0.0,    7.2,   0.00,   0.00, 1015.3,   98.7, -999.0
08-10-2022, 00:18:44,    267,    0.0,    7.2,   0.00,   0.00, 1015.3,   98.7, -999.0
08-10-2022, 00:18:54,    267,    0.5,    7.3,   0.00,   0.00, 1015.4,   98.9, -999.0
08-10-2022, 00:19:03,    266,    0.3,    7.3,   0.00,   0.00, 1015.5,   99.0, -999.0
08-10-2022, 00:19:13,    266,    0.0,    7.2,   0.00,   0.00, 1015.3,   98.7, -999.0
08-10-2022, 00:19:24,    267,    0.0,    7.3,   0.00,   0.00, 1015.3,   98.6, -999.0
08-10-2022, 00:19:33,    266,    0.0,    7.2,   0.00,   0.00, 1015.3,   98.7, -999.0
08-10-2022, 00:19:43,    266,    0.0,    7.2,   0.00,   0.00, 1015.3,   98.8, -999.0
08-10-2022, 00:19:54,    266,    0.1,    7.2,   0.00,   0.00, 1015.4,   98.7, -999.0
08-10-2022, 00:20:03,    266,    0.0,    7.3,   0.00,   0.00, 1015.3,   98.6, -999.0
08-10-2022, 00:20:14,    266,    0.0,    7.2,   0.00,   0.00, 1015.3,   98.6, -999.0
08-10-2022, 00:20:23,    266,    0.0,    7.2,   0.00,   0.00, 1015.3,   98.6, -999.0
08-10-2022, 00:20:33,    266,    0.0,    7.3,   0.00,   0.00, 1015.3,   98.6, -999.0
08-10-2022, 00:20:43,    266,    0.0,    7.1,   0.00,   0.00, 1015.3,   98.6, -999.0
08-10-2022, 00:20:53,    266,    0.0,    7.2,   0.00,   0.00, 1015.3,   98.6, -999.0
08-10-2022, 00:21:03,    267,    0.0,    7.2,   0.00,   0.00, 1015.3,   98.6, -999.0
08-10-2022, 00:21:13,    266,    0.0,    7.2,   0.00,   0.00, 1015.3,   98.7, -999.0
08-10-2022, 00:21:23,    267,    0.1,    7.2,   0.00,   0.00, 1015.4,   98.8, -999.0
08-10-2022, 00:21:33,    266,    0.0,    7.2,   0.00,   0.00, 1015.3,   98.6, -999.0
08-10-2022, 00:21:42,    266,    0.0,    7.2,   0.00,   0.00, 1015.3,   98.6, -999.0
08-10-2022, 00:21:53,    266,    0.0,    7.2,   0.00,   0.00, 1015.3,   98.6, -999.0
08-10-2022, 00:22:03,    266,    0.0,    7.2,   0.00,   0.00, 1015.3,   98.6, -999.0
08-10-2022, 00:22:12,    266,    0.0,    7.2,   0.00,   0.00, 1015.3,   98.6, -999.0
08-10-2022, 00:22:22,    266,    0.0,    7.3,   0.00,   0.00, 1015.3,   98.6, -999.0
08-10-2022, 00:22:33,    266,    0.0,    7.2,   0.00,   0.00, 1015.3,   98.7, -999.0
08-10-2022, 00:22:42,    266,    0.0,    7.2,   0.00,   0.00, 1015.3,   98.6, -999.0
08-10-2022, 00:22:52,    266,    0.0,    7.3,   0.00,   0.00, 1015.3,   98.6, -999.0
08-10-2022, 00:23:02,    266,    0.0,    7.2,   0.00,   0.00, 1015.2,   98.7, -999.0
08-10-2022, 00:23:12,    266,    0.0,    7.2,   0.00,   0.00, 1015.3,   98.6, -999.0
08-10-2022, 00:23:22,    266,    0.0,    7.2,   0.00,   0.00, 1015.3,   98.6, -999.0
08-10-2022, 00:23:32,    267,    0.0,    7.2,   0.00,   0.00, 1015.3,   98.6, -999.0
08-10-2022, 00:23:42,    266,    0.0,    7.2,   0.00,   0.00, 1015.3,   98.6, -999.0
08-10-2022, 00:23:52,    267,    0.0,    7.1,   0.00,   0.00, 1015.3,   98.6, -999.0
08-10-2022, 00:24:02,    266,    0.0,    7.2,   0.00,   0.00, 1015.3,   98.6, -999.0
08-10-2022, 00:24:12,    267,    0.4,    7.2,   0.00,   0.00, 1015.4,   98.9, -999.0
08-10-2022, 00:24:22,    266,    0.4,    7.2,   0.00,   0.00, 1015.4,   99.0, -999.0
08-10-2022, 00:24:32,    266,    0.1,    7.3,   0.00,   0.00, 1015.3,   98.7, -999.0
08-10-2022, 00:24:42,    266,    0.0,    7.1,   0.00,   0.00, 1015.3,   98.6, -999.0
08-10-2022, 00:24:51,    267,    0.0,    7.3,   0.00,   0.00, 1015.3,   98.8, -999.0
08-10-2022, 00:25:02,    266,    0.7,    7.3,   0.00,   0.00, 1015.4,   99.0, -999.0
08-10-2022, 00:25:12,    266,    0.3,    7.3,   0.00,   0.00, 1015.4,   99.0, -999.0
08-10-2022, 00:25:21,    266,    0.0,    7.2,   0.00,   0.00, 1015.3,   98.6, -999.0
08-10-2022, 00:25:31,    266,    0.0,    7.2,   0.00,   0.00, 1015.3,   98.6, -999.0
08-10-2022, 00:25:42,    266,    0.0,    7.3,   0.00,   0.00, 1015.3,   98.6, -999.0
08-10-2022, 00:25:51,    266,    0.0,    7.2,   0.00,   0.00, 1015.3,   98.6, -999.0
08-10-2022, 00:26:01,    266,    0.0,    7.2,   0.00,   0.00, 1015.3,   98.6, -999.0
08-10-2022, 00:26:11,    266,    0.0,    7.3,   0.00,   0.00, 1015.2,   98.6, -999.0
08-10-2022, 00:26:21,    266,    0.0,    7.2,   0.00,   0.00, 1015.2,   98.6, -999.0
08-10-2022, 00:26:31,    266,    0.0,    7.2,   0.00,   0.00, 1015.3,   98.6, -999.0
08-10-2022, 00:26:41,    266,    0.0,    7.3,   0.00,   0.00, 1015.3,   98.6, -999.0
08-10-2022, 00:26:51,    266,    0.0,    7.3,   0.00,   0.00, 1015.3,   98.7, -999.0
08-10-2022, 00:27:01,    266,    0.0,    7.3,   0.00,   0.00, 1015.3,   98.8, -999.0
08-10-2022, 00:27:11,    269,    0.0,    7.3,   0.00,   0.00, 1015.3,   98.7, -999.0
08-10-2022, 00:27:21,    266,    0.0,    7.2,   0.00,   0.00, 1015.3,   98.7, -999.0
08-10-2022, 00:27:31,    266,    0.0,    7.3,   0.00,   0.00, 1015.2,   98.6, -999.0
08-10-2022, 00:27:41,    266,    0.0,    7.3,   0.00,   0.00, 1015.2,   98.6, -999.0
08-10-2022, 00:27:51,    266,    0.0,    7.3,   0.00,   0.00, 1015.2,   98.6, -999.0
08-10-2022, 00:28:00,    266,    0.0,    7.2,   0.00,   0.00, 1015.2,   98.6, -999.0
08-10-2022, 00:28:11,    266,    0.0,    7.2,   0.00,   0.00, 1015.2,   98.6, -999.0
08-10-2022, 00:28:21,    266,    0.0,    7.3,   0.00,   0.00, 1015.2,   98.6, -999.0
08-10-2022, 00:28:30,    266,    0.0,    7.3,   0.00,   0.00, 1015.3,   98.7, -999.0
08-10-2022, 00:28:40,    266,    0.0,    7.3,   0.00,   0.00, 1015.3,   98.6, -999.0
08-10-2022, 00:28:50,    266,    0.0,    7.3,   0.00,   0.00, 1015.2,   98.6, -999.0
08-10-2022, 00:29:00,    266,    0.0,    7.3,   0.00,   0.00, 1015.3,   98.6, -999.0
08-10-2022, 00:29:10,    266,    0.0,    7.3,   0.00,   0.00, 1015.3,   98.6, -999.0
08-10-2022, 00:29:20,    266,    0.0,    7.3,   0.00,   0.00, 1015.3,   98.7, -999.0
08-10-2022, 00:29:30,    266,    0.0,    7.2,   0.00,   0.00, 1015.3,   98.6, -999.0
08-10-2022, 00:29:40,    266,    0.0,    7.2,   0.00,   0.00, 1015.3,   98.6, -999.0
08-10-2022, 00:29:50,    266,    0.0,    7.2,   0.00,   0.00, 1015.3,   98.6, -999.0
08-10-2022, 00:30:00,    266,    0.0,    7.3,   0.00,   0.00, 1015.3,   98.6, -999.0
08-10-2022, 00:30:10,    266,    0.0,    7.2,   0.00,   0.00, 1015.3,   98.6, -999.0
08-10-2022, 00:30:20,    266,    0.0,    7.2,   0.00,   0.00, 1015.3,   98.6, -999.0
08-10-2022, 00:30:30,    266,    0.0,    7.2,   0.00,   0.00, 1015.3,   98.6, -999.0
08-10-2022, 00:30:40,    266,    0.0,    7.1,   0.00,   0.00, 1015.3,   98.6, -999.0
08-10-2022, 00:30:50,    266,    0.0,    7.2,   0.00,   0.00, 1015.3,   98.6, -999.0
08-10-2022, 00:31:00,    266,    0.0,    7.2,   0.00,   0.00, 1015.3,   98.6, -999.0
08-10-2022, 00:31:09,    266,    0.0,    7.2,   0.00,   0.00, 1015.3,   98.7, -999.0
08-10-2022, 00:31:20,    266,    0.0,    7.1,   0.00,   0.00, 1015.3,   98.6, -999.0
08-10-2022, 00:31:30,    266,    0.0,    7.2,   0.00,   0.00, 1015.3,   98.6, -999.0
08-10-2022, 00:31:39,    266,    0.0,    7.2,   0.00,   0.00, 1015.3,   98.7, -999.0
08-10-2022, 00:31:49,    266,    0.0,    7.2,   0.00,   0.00, 1015.3,   98.6, -999.0
08-10-2022, 00:31:59,    266,    0.0,    7.2,   0.00,   0.00, 1015.3,   98.6, -999.0
08-10-2022, 00:32:09,    267,    0.0,    7.2,   0.00,   0.00, 1015.3,   98.6, -999.0
08-10-2022, 00:32:19,    267,    0.0,    7.2,   0.00,   0.00, 1015.4,   98.8, -999.0
08-10-2022, 00:32:29,    269,    0.0,    7.1,   0.00,   0.00, 1015.3,   98.6, -999.0
08-10-2022, 00:32:39,    269,    0.0,    7.1,   0.00,   0.00, 1015.4,   98.6, -999.0
08-10-2022, 00:32:49,    269,    0.0,    7.2,   0.00,   0.00, 1015.3,   98.6, -999.0
08-10-2022, 00:32:59,    268,    0.0,    7.1,   0.00,   0.00, 1015.3,   98.6, -999.0
08-10-2022, 00:33:09,    268,    0.0,    7.1,   0.00,   0.00, 1015.4,   98.6, -999.0
08-10-2022, 00:33:19,    268,    0.0,    7.1,   0.00,   0.00, 1015.4,   98.7, -999.0
08-10-2022, 00:33:29,    268,    0.0,    7.1,   0.00,   0.00, 1015.4,   98.6, -999.0
08-10-2022, 00:33:39,    268,    0.0,    7.1,   0.00,   0.00, 1015.4,   98.6, -999.0
08-10-2022, 00:33:49,    265,    0.0,    7.1,   0.00,   0.00, 1015.4,   98.7, -999.0
08-10-2022, 00:33:59,    269,    0.0,    7.1,   0.00,   0.00, 1015.4,   98.6, -999.0
08-10-2022, 00:34:09,    269,    0.0,    7.1,   0.00,   0.00, 1015.4,   98.6, -999.0
08-10-2022, 00:34:18,    268,    0.0,    7.1,   0.00,   0.00, 1015.3,   98.7, -999.0
08-10-2022, 00:34:29,    269,    0.0,    7.1,   0.00,   0.00, 1015.4,   98.6, -999.0
08-10-2022, 00:34:38,    268,    0.0,    7.2,   0.00,   0.00, 1015.4,   98.6, -999.0
08-10-2022, 00:34:48,    269,    0.0,    7.1,   0.00,   0.00, 1015.4,   98.6, -999.0
08-10-2022, 00:34:59,    269,    0.0,    7.1,   0.00,   0.00, 1015.4,   98.6, -999.0
08-10-2022, 00:35:08,    268,    0.0,    7.1,   0.00,   0.00, 1015.4,   98.7, -999.0
08-10-2022, 00:35:18,    269,    0.0,    7.1,   0.00,   0.00, 1015.4,   98.7, -999.0
08-10-2022, 00:35:28,    269,    0.0,    7.1,   0.00,   0.00, 1015.4,   98.6, -999.0
08-10-2022, 00:35:38,    268,    0.0,    7.0,   0.00,   0.00, 1015.4,   98.6, -999.0
08-10-2022, 00:35:48,    268,    0.0,    7.1,   0.00,   0.00, 1015.4,   98.6, -999.0
08-10-2022, 00:35:58,    269,    0.0,    7.1,   0.00,   0.00, 1015.4,   98.6, -999.0
08-10-2022, 00:36:08,    268,    0.0,    7.1,   0.00,   0.00, 1015.4,   98.6, -999.0
08-10-2022, 00:36:18,    269,    0.0,    7.1,   0.00,   0.00, 1015.3,   98.7, -999.0
08-10-2022, 00:36:28,    268,    0.0,    7.2,   0.00,   0.00, 1015.4,   98.6, -999.0
08-10-2022, 00:36:38,    268,    0.0,    7.1,   0.00,   0.00, 1015.4,   98.6, -999.0
08-10-2022, 00:36:48,    268,    0.0,    7.1,   0.00,   0.00, 1015.4,   98.6, -999.0
08-10-2022, 00:36:58,    269,    0.0,    7.1,   0.00,   0.00, 1015.4,   98.6, -999.0
08-10-2022, 00:37:08,    268,    0.0,    7.0,   0.00,   0.00, 1015.4,   98.7, -999.0
08-10-2022, 00:37:18,    269,    0.0,    7.1,   0.00,   0.00, 1015.4,   98.6, -999.0
08-10-2022, 00:37:27,    268,    0.0,    7.2,   0.00,   0.00, 1015.4,   98.6, -999.0
08-10-2022, 00:37:38,    268,    0.0,    7.2,   0.00,   0.00, 1015.4,   98.6, -999.0
08-10-2022, 00:37:47,    268,    0.0,    7.2,   0.00,   0.00, 1015.4,   98.6, -999.0
08-10-2022, 00:37:57,    268,    0.0,    7.1,   0.00,   0.00, 1015.4,   98.6, -999.0
08-10-2022, 00:38:08,    269,    0.0,    7.1,   0.00,   0.00, 1015.4,   98.6, -999.0
08-10-2022, 00:38:17,    268,    0.0,    7.2,   0.00,   0.00, 1015.4,   98.6, -999.0
08-10-2022, 00:38:27,    268,    0.0,    7.2,   0.00,   0.00, 1015.4,   98.6, -999.0
08-10-2022, 00:38:37,    269,    0.0,    7.1,   0.00,   0.00, 1015.4,   98.6, -999.0
08-10-2022, 00:38:47,    268,    0.0,    7.1,   0.00,   0.00, 1015.4,   98.6, -999.0
08-10-2022, 00:38:57,    269,    0.0,    7.1,   0.00,   0.00, 1015.4,   98.7, -999.0
08-10-2022, 00:39:07,    268,    0.0,    7.1,   0.00,   0.00, 1015.4,   98.6, -999.0
08-10-2022, 00:39:17,    269,    0.0,    7.1,   0.00,   0.00, 1015.4,   98.6, -999.0
08-10-2022, 00:39:27,    269,    0.0,    7.1,   0.00,   0.00, 1015.4,   98.7, -999.0
08-10-2022, 00:39:37,    268,    0.0,    7.2,   0.00,   0.00, 1015.4,   98.6, -999.0
08-10-2022, 00:39:47,    269,    0.0,    7.1,   0.00,   0.00, 1015.4,   98.6, -999.0
08-10-2022, 00:39:57,    269,    0.0,    7.1,   0.00,   0.00, 1015.4,   98.6, -999.0
08-10-2022, 00:40:07,    269,    0.0,    7.1,   0.00,   0.00, 1015.4,   98.6, -999.0
08-10-2022, 00:40:17,    268,    0.0,    7.1,   0.00,   0.00, 1015.4,   98.6, -999.0
08-10-2022, 00:40:26,    268,    0.0,    7.1,   0.00,   0.00, 1015.4,   98.6, -999.0
08-10-2022, 00:40:36,    268,    0.0,    7.1,   0.00,   0.00, 1015.4,   98.6, -999.0
08-10-2022, 00:40:47,    268,    0.0,    7.1,   0.00,   0.00, 1015.4,   98.6, -999.0
08-10-2022, 00:40:56,    268,    0.0,    7.1,   0.00,   0.00, 1015.4,   98.6, -999.0
08-10-2022, 00:41:06,    267,    0.0,    7.0,   0.00,   0.00, 1015.4,   98.6, -999.0
08-10-2022, 00:41:17,    268,    0.0,    7.1,   0.00,   0.00, 1015.4,   98.6, -999.0
08-10-2022, 00:41:26,    268,    0.0,    7.0,   0.00,   0.00, 1015.4,   98.6, -999.0
08-10-2022, 00:41:36,    269,    0.0,    7.0,   0.00,   0.00, 1015.4,   98.6, -999.0
08-10-2022, 00:41:46,    268,    0.0,    7.0,   0.00,   0.00, 1015.4,   98.6, -999.0
08-10-2022, 00:41:56,    269,    0.0,    7.1,   0.00,   0.00, 1015.4,   98.6, -999.0
08-10-2022, 00:42:06,    268,    0.0,    7.1,   0.00,   0.00, 1015.4,   98.6, -999.0
08-10-2022, 00:42:16,    268,    0.0,    7.1,   0.00,   0.00, 1015.4,   98.6, -999.0
08-10-2022, 00:42:26,    269,    0.0,    7.1,   0.00,   0.00, 1015.4,   98.6, -999.0
08-10-2022, 00:42:36,    269,    0.0,    7.1,   0.00,   0.00, 1015.4,   98.6, -999.0
08-10-2022, 00:42:46,    269,    0.0,    7.0,   0.00,   0.00, 1015.4,   98.6, -999.0
08-10-2022, 00:42:56,    269,    0.0,    6.9,   0.00,   0.00, 1015.4,   98.5, -999.0
08-10-2022, 00:43:05,    268,    0.0,    7.0,   0.00,   0.00, 1015.4,   98.6, -999.0
08-10-2022, 00:43:16,    269,    0.0,    7.0,   0.00,   0.00, 1015.5,   98.6, -999.0
08-10-2022, 00:43:26,    269,    0.0,    7.0,   0.00,   0.00, 1015.5,   98.6, -999.0
08-10-2022, 00:43:35,    268,    0.0,    7.0,   0.00,   0.00, 1015.5,   98.7, -999.0
08-10-2022, 00:43:46,    268,    0.0,    7.0,   0.00,   0.00, 1015.4,   98.6, -999.0
08-10-2022, 00:43:56,    265,    0.0,    7.0,   0.00,   0.00, 1015.5,   98.6, -999.0
08-10-2022, 00:44:05,    268,    0.0,    6.9,   0.00,   0.00, 1015.4,   98.7, -999.0
08-10-2022, 00:44:15,    269,    0.0,    7.0,   0.00,   0.00, 1015.4,   98.6, -999.0
08-10-2022, 00:44:26,    269,    0.0,    7.1,   0.00,   0.00, 1015.5,   98.7, -999.0
08-10-2022, 00:44:35,    268,    0.0,    7.0,   0.00,   0.00, 1015.4,   98.7, -999.0
08-10-2022, 00:44:45,    268,    0.0,    7.0,   0.00,   0.00, 1015.4,   98.7, -999.0
08-10-2022, 00:44:55,    269,    0.0,    7.0,   0.00,   0.00, 1015.4,   98.6, -999.0
08-10-2022, 00:45:05,    269,    0.0,    7.0,   0.00,   0.00, 1015.5,   98.6, -999.0
08-10-2022, 00:45:15,    269,    0.0,    7.0,   0.00,   0.00, 1015.4,   98.6, -999.0
08-10-2022, 00:45:25,    269,    0.0,    6.9,   0.00,   0.00, 1015.4,   98.7, -999.0
08-10-2022, 00:45:35,    269,    0.0,    6.9,   0.00,   0.00, 1015.4,   98.6, -999.0
08-10-2022, 00:45:45,    268,    0.0,    7.0,   0.00,   0.00, 1015.4,   98.7, -999.0
08-10-2022, 00:45:55,    268,    0.0,    7.0,   0.00,   0.00, 1015.5,   98.6, -999.0
08-10-2022, 00:46:05,    269,    0.0,    7.0,   0.00,   0.00, 1015.5,   98.7, -999.0
08-10-2022, 00:46:14,    269,    0.0,    7.0,   0.00,   0.00, 1015.5,   98.7, -999.0
08-10-2022, 00:46:25,    269,    0.0,    7.0,   0.00,   0.00, 1015.4,   98.7, -999.0
08-10-2022, 00:46:35,    268,    0.0,    7.0,   0.00,   0.00, 1015.4,   98.6, -999.0